Regional Weather Roundup
Issued by NWS

Home | Current Version | Previous Version | Graphics & Text | Print | Product List | Glossary On
Versions: 1 2 3 4 5 6 7 8 9 10 11 12 13 14 15 16 17 18 19 20 21 22 23 24 25 26 27 28 29 30 31 32 33 34 35 36 37 38 39 40 41 42 43 44 45 46 47 48 49 50
000
ASUS44 KMEG 141710
RWRTN
TENNESSEE HOURLY STATE WEATHER ROUNDUP
NATIONAL WEATHER SERVICE MEMPHIS TN
1100 AM CST SUN FEB 14 2016

TNZ002-004-019-021-049-052-054-088>092-141800-
WEST TENNESSEE

CITY           SKY/WX    TMP DP  RH WIND       PRES   REMARKS
MEMPHIS INTL   CLOUDY    41  14  33 S7        30.14S
NWS MEMPHIS      N/A     38 N/A N/A MISG        N/A
JACKSON        CLOUDY    30  17  58 E7        30.18F WCI  23
DYERSBURG      CLOUDY    28  21  74 SE15G22   30.16F WCI  17
UNION CITY     CLOUDY    27  19  74 SE12      30.14F WCI  16
PARIS          CLOUDY    25  18  74 SE12      30.19F WCI  14
LEXINGTON      CLOUDY    30   9  40 E7        30.19F WCI  23
$$

TNZ008-025-027-028-033-062-065-066-141800-
NORTH MIDDLE TENNESSEE

CITY           SKY/WX    TMP DP  RH WIND       PRES   REMARKS
NASHVILLE      CLOUDY    30  10  43 E7        30.27S WCI  23
CLARKSVILLE    LGT SNOW  26  18  71 VRB3      30.27R
SMYRNA         CLOUDY    30  11  45 E6        30.27F WCI  24
COOKEVILLE     PTSUNNY   28   9  43 S6        30.24F WCI  22
CROSSVILLE     CLOUDY    24   6  46 SE8       30.23F WCI  15
$$

TNZ061-075-076-078-094-096-097-141800-
SOUTH MIDDLE TENNESSEE

CITY           SKY/WX    TMP DP  RH WIND       PRES   REMARKS
FAYETTEVILLE   CLOUDY    36   9  32 SE12      30.22F WCI  27
TULLAHOMA      CLOUDY    30   3  31 SE9       30.22F WCI  22
WINCHESTER     CLOUDY    32  10  40 SE12      30.23F WCI  23
MCMINNVILLE    CLOUDY    30   9  40 SE8       30.22F WCI  23
COLUMBIA       CLOUDY    30  12  47 S5        30.21S WCI  25
SHELBYVILLE    CLOUDY    34  12  40 SE12      30.22F WCI  25
$$

TNZ017-018-042-046-047-141800-
NORTHEAST TENNESSEE

CITY           SKY/WX    TMP DP  RH WIND       PRES   REMARKS
TRI CITIES     CLOUDY    22   6  50 E6        30.33F WCI  14
$$

TNZ012-013-036-069-073-074-141800-
CENTRAL EAST TENNESSEE

CITY           SKY/WX    TMP DP  RH WIND       PRES   REMARKS
KNOXVILLE      CLOUDY    24   7  48 NE8       30.34F WCI  15
OAK RIDGE      CLOUDY    24   7  48 VRB3      30.35F
GATLINBURG     CLOUDY    21   9  58 NE5       30.32F WCI  15
MORRISTOWN     CLOUDY    21   9  58 E7        30.31F WCI  13
$$

TNZ083-085-099-141800-
SOUTHEAST TENNESSEE

CITY           SKY/WX    TMP DP  RH WIND       PRES   REMARKS
CHATTANOOGA    CLOUDY    33  10  38 N8        30.32F WCI  26
$$

SKY/WX REPORTED AS FAIR MEANS FEW OR NO CLOUDS BELOW
12 THOUSAND FEET.




USA.gov is the U.S. government's official web portal to all federal, state and local government web resources and services.